sat.trackr.live / text

‹ back to catalog

STARLINK-34156

NORAD 64108 · 2025-110N

PAYLOAD ACTIVE UNKNOWN

§ Identity

Operator
Country
US
Launch date
2025-05-23
Launch site
AFWTR
Launch vehicle
Mass (kg)
RCS (m²)

Purposes: comms

External: N2YO · Heavens-Above · Gunter

§ Orbital elements

Epoch: 2026-05-25T02:15:40.347072Z

Period
94.01 min
Inclination
53.1602°
Eccentricity
0.0001088
Mean motion
15.31715353 rev/d
Perigee alt
469.9 km
Apogee alt
471.4 km
Semi-major
6,848.8 km
B*
3.9493e-4
RAAN
31.6373°
Arg perigee
79.6853°
Mean anomaly
280.4271°
Rev number
5,758

§ Raw data

STARLINK-341561 64108U 25110N   26145.09421698  .00011915  00000+0  39493-3 0  99922 64108  53.1602  31.6373 0001088  79.6853 280.4271 15.31715353 57589

JSON: /api/v1/satellites/64108 · /tle

For live sub-satellite position, see the globe view (requires WebGL).

§ Visibility from observer

Set your observer location to see the next 7 days of passes ≥ 10°. The values pass through the URL so the page stays shareable.

No JS? Fill the form by hand. The geolocation button needs JavaScript.